{"data":{"norad_id":65954,"epoch":"2026-09-20T04:52:02.008128Z","epoch_age_seconds":169327,"freshness":"FRESH","line1":"1 65954U 25228H   26263.20280102  .00002072  00000+0  30059-3 0  9992","line2":"2 65954  51.8982 200.4671 0000977  77.5889 282.5183 14.79957712 52313","mean_motion":14.79957712,"eccentricity":9.77e-5,"inclination_deg":51.8982,"raan_deg":200.4671,"arg_perigee_deg":77.5889,"mean_anomaly_deg":282.5183,"bstar":0.00030059,"rev_number":5231,"period_min":97.300077449781,"perigee_km":628.7729786057,"apogee_km":630.14226259457,"semimajor_km":7007.5946206001,"source":"CELESTRAK","updated_at":"2026-09-21T09:00:15.655842Z"}}